Location: North Evanston
(42.0634°N, 87.6976°W)
Time: 20:42:48
(UTC+00:00)

Vanguard 3 - Pass Details

Date: 17 May 2026
Orbit: 507 x 3205 km, 33.4° (Epoch: 31 May)

Event Time Altitude Azimuth Distance (km) Brightness Sun altitude
Rises 17:58:38 0° 226° (SW) 6,050 11.8 67.3°
Reaches altitude 10° 18:02:25 10° 220° (SW) 5,333 11.8 67.2°
Maximum altitude 18:18:26 48° 153° (SSE) 3,789 11.8 66.4°
Drops below altitude 10° 18:36:11 10° 87° (E) 5,881 11.5 65.1°
Sets 18:40:34 0° 83° (E) 6,692 11.7 64.7°
